Regional Weather Roundup
Issued by NWS Grand Forks, ND

Home | Current Version | Previous Version | Graphics & Text | Print | Product List | Glossary On
Versions: 1 2 3 4 5 6 7 8 9 10 11 12 13 14 15 16 17 18 19 20 21 22 23 24 25 26 27 28 29 30 31 32 33 34 35 36 37 38 39 40 41 42 43 44 45 46 47 48 49 50
000
ASUS43 KFGF 031910
RWRFGF
PRAIRIE TO PINES  WEATHER ROUNDUP
NATIONAL WEATHER SERVICE EASTERN NORTH DAKOTA/GRAND FORKS ND
200 PM CDT SUN MAY 03 2015

 **SATELLITE DATA USED TO AUGMENT SKY COVER AT AUTOMATED STATIONS**
 *****  WEATHER ACROSS EASTERN NORTH DAKOTA  *****

CITY           SKY/WX    TMP DP  RH WIND       PRES   REMARKS
GRAND FORKS    PTSUNNY   67  27  22 NW14G25   29.89F
GRAND FRKS AFB PTSUNNY   68  23  18 N18G30    29.89F
GRAND FRKS NWS   N/A     66 N/A N/A NW13        N/A
DEVILS LAKE    SUNNY     63  25  23 NW22G28   29.92S
FARGO          CLOUDY    66  27  23 N17G23    29.92R
WAHPETON ARPT  CLOUDY    63  32  31 N16       29.92R
$$

 ***** WEATHER ACROSS CENTRAL AND WESTERN NORTH DAKOTA  *****

CITY           SKY/WX    TMP DP  RH WIND       PRES   REMARKS
BISMARCK       MOSUNNY   66  27  23 NW17G25   29.99S
MINOT          SUNNY     61  25  25 W18G31    29.98F
JAMESTOWN      PTSUNNY   66  23  19 N21G28    29.93S
MINOT AFB      SUNNY     63  27  25 W18G28    29.97F
GARRISON         N/A     63  24  22 NW21G31   29.99F
WILLISTON      LGT RAIN  62  23  22 NW16G26   30.04S
DICKINSON      MOSUNNY   61  27  27 NW17      30.01F
HETTINGER      PTSUNNY   59  32  36 N7        30.04S
$$

 *****  OTHER AIRPORT OBSERVATIONS IN OUR AREA  *****

CITY           SKY/WX    TMP DP  RH WIND       PRES   REMARKS
WALHALLA       FAIR      63  28  27 NW23G33   29.89F
GRAFTON AIRPOR FAIR      64  30  27 NW16G28   29.89F
VALLEY CITY AR FAIR      61  27  27 NW15G24   29.95R
CANDO          FAIR      63  27  25 NW17G23   29.94S
CAVALIER APRT  FAIR      64  30  27 NW14G29   29.89S
GWINNER        CLEAR     64  32  29 N17G24    29.95R
SHEYENNE NWR     N/A     64  31  29 N14       29.95
ROLLA          NOT AVBL
 ***** THE ABOVE OBSERVATIONS ARE NON NWS ARE NOT QUALITY
       CONTROLLED AND MAY MIS-REPORT RAIN FOR SNOW...
$$

  *****  WEATHER ACROSS NORTHERN MINNESOTA  *****

CITY           SKY/WX    TMP DP  RH WIND       PRES   REMARKS
FLAG ISLAND    PTSUNNY   61  30  31 W25G32    29.80S
WARROAD        PTSUNNY   64  34  32 W18G24    29.84F
ROSEAU         PTSUNNY   64  27  24 W17G26    29.85S
HALLOCK        MOSUNNY   66  21  18 NW20G26   29.87S
THF RVR FALLS  CLOUDY    63  30  29 NW17G26   29.89S
BAUDETTE       CLOUDY    62  33  33 W17G25    29.84R
WASKISH        CLOUDY    63  39  42 W13       29.86S
CROOKSTON      CLOUDY    64  28  25 N18G25    29.90S
$$
  *****  WEATHER ACROSS CENTRAL AND WEST MINNESOTA  *****

CITY           SKY/WX    TMP DP  RH WIND       PRES   REMARKS
FOSSTON        NOT AVBL
BEMIDJI        CLOUDY    61  34  37 NW14      29.88S
PARK RAPIDS    CLOUDY    66  33  29 N15       29.88S
ELBOW LAKE     FAIR      65  38  36 N20G25    29.89R
WADENA         CLOUDY    64  39  39 N10G17    29.87R
DETROIT LAKES  CLOUDY    63  34  34 N16G22    29.92R
MOORHEAD       CLOUDY    64  23  20 N16       29.92R
FERGUS FALLS   PTSUNNY   66  37  34 N14G22    29.91R
MORRIS MN      MOSUNNY   72  37  28 N25G36    29.86R
STAPLES        CLOUDY    66  36  32 NW16      29.85R
$$
  *****  WEATHER ELSEWHERE ACROSS MINNESOTA  *****

CITY           SKY/WX    TMP DP  RH WIND       PRES   REMARKS
DULUTH         CLOUDY    76  40  27 W10G20    29.78S
INTRNTL FALLS  CLOUDY    64  30  27 NW20      29.83R
ELY            PTSUNNY   73  28  19 W20G29    29.79R
CLOQUET        CLOUDY    75  32  20 W9        29.79S
WHEATON        PTSUNNY   63  36  36 N17       29.92R
BRAINERD         N/A     67  53  61 VRB3      29.83S
HIBBING        PTSUNNY   75  32  20 NW20G30   29.81R
ALEXANDRIA     CLOUDY    68  39  34 N20G25    29.88R
SAINT CLOUD    MOSUNNY   74  58  57 N7        29.80F
MINNEAPOLIS    MOSUNNY   80  56  43 S7        29.77F
$$

  *****  WEATHER ACROSS SOUTH DAKOTA  *****

CITY           SKY/WX    TMP DP  RH WIND       PRES   REMARKS
SIOUX FALLS    PTSUNNY   82  54  37 N9        29.78S
BROOKINGS      CLOUDY    72  39  30 N29G38    29.86R
WATERTOWN      MOSUNNY   69  37  30 NE23G35   29.88R
HURON          MOSUNNY   73  38  27 N23G30    29.88R
SISSETON         N/A     69  38  32 N18       29.92R
ABERDEEN       CLOUDY    70  33  25 N22G31    29.93R
MITCHELL       PTSUNNY   76  41  28 N29G38    29.85R
PIERRE         MOSUNNY   74  34  23 NE22G30   29.91F
MOBRIDGE       PTSUNNY   64  33  31 N15G25    29.95R
RAPID CITY     SUNNY     67  37  33 N17       30.00F
$$

  *****  SOME WEATHER IN NEARBY STATES *****

CITY           SKY/WX    TMP DP  RH WIND       PRES   REMARKS
GLASGOW MT     MOSUNNY   57  27  31 N10       30.06F
GREAT FALLS MT SUNNY     57  31  37 VRB3      30.00F
CHEYENNE WY    MOSUNNY   65  37  35 NE15G21   30.01S
SCOTTSBLUFF NE MOSUNNY   71  39  31 E13G22    29.96F
OMAHA NE       PTSUNNY   81  59  47 S14       29.74F
DES MOINES IA  MOSUNNY   80  58  46 S14G21    29.80F
DAVENPORT IA   CLOUDY    67  59  75 N7        29.91R
CHICAGO IL     LGT RAIN  72  49  44 SW8       29.95R
EAU CLAIRE WI  SUNNY     77  53  43 SW8       29.79S
LA CROSSE WI   SUNNY     81  32  17 S9G28     29.80F
$$

  *****  SOME NATIONAL WEATHER *****

CITY           SKY/WX    TMP DP  RH WIND       PRES   REMARKS
LA GUARDIA NY  MOSUNNY   74  37  26 S15       30.06F
RALEIGH NC     PTSUNNY   76  43  30 CALM      30.17F
ATLANTA GA     MOSUNNY   78  47  33 SW9       30.17F
NEW ORLEANS LA MOSUNNY   79  54  41 NE10      30.10F
OKLAHOMA CITY  CLOUDY    75  59  57 S8        29.95F
ALBUQUERQUE NM MOSUNNY   75  33  21 VRB3      30.02F
SALT LAKE CITY PTSUNNY   76  32  20 S15       29.88F
LOS ANGELES CA SUNNY     66  54  65 W13       29.94S
BOISE ID       SUNNY     69  34  27 NW6       29.89F
SEATTLE WA     SUNNY     59  41  51 W9        30.00F
$$

*** WEATHER ACROSS MANITOBA...SASKATCHEWAN AND ONTARIO ***
                ***ONTARIO***

CITY           SKY/WX    TMP DP  RH WIND       PRES   REMARKS
GERALDTON      PTSUNNY   73  46  38 SW17G26   29.64S
THUNDER BAY    PTSUNNY   81  32  17 NW10G22   29.67S
SIOUX LOOKOUT  PTSUNNY   61  37  41 NW10G20   29.75R
TORONTO        MOSUNNY   73  45  35 SE12      30.01F
BIG TROUT LK   LGT RAIN  39  34  81 NW9       29.73R
PICKLE LAKE    PTSUNNY   50  39  66 VRB7      29.71R
DRYDEN         MOSUNNY   61  36  39 W17G24    29.76R
KENORA         MOSUNNY   61  34  36 W12G25    29.79S
$$
                *** MANITOBA***

CITY           SKY/WX    TMP DP  RH WIND       PRES   REMARKS
BRANDON        MOSUNNY   59  32  36 NW21G29   29.93R
DAUPHIN        MOSUNNY   59  37  44 N9G18     29.89S
ISLAND LAKE    PTSUNNY   41  32  70 N7        29.81R
PILOT MOUND      N/A     61  27  27 NW16G29     N/A
THE PAS        MOSUNNY   45  34  65 N6        29.93R
THOMPSON       CLOUDY    34  25  69 N7        29.89R
WINNIPEG       PTSUNNY   59  37  44 NW23G39   29.88R
LYNN LAKE      SUNNY     43  25  49 VRB8G18   29.88S
GILLAM         CLOUDY    28  23  80 N10       29.87R WCI  19
$$
                ***SASKATCHEWAN***

CITY           SKY/WX    TMP DP  RH WIND       PRES   REMARKS
ESTEVAN        MOSUNNY   57  32  38 NW14G23   30.01S
KINDERSLEY     PTSUNNY   52  28  40 W12G18    30.05S
LLOYDMINSTER   PTSUNNY   50  27  40 VRB5      30.04R
PRINCE ALBERT  MOSUNNY   54  32  43 NW18G29   29.99R
REGINA         PTSUNNY   55  32  41 NW14G20   30.03S
YORKTON        PTSUNNY   52  34  50 NW17G23   29.97S
N. BATTLEFORD  PTSUNNY   54  30  40 NW9       30.04F
LA RONGE       PTSUNNY   48  25  40 W21       29.98R
SASKATOON      PTSUNNY   52  32  46 W14G20    30.03S
SWIFT CURRENT  PTSUNNY   54  27  35 W13       30.05S
$$
NOTE: THESE ARE AUTOMATED STATIONS WITH LIMITED QUALITY CONTROL
      "FAIR" INDICATES FEW OR NO CLOUDS BELOW 12,000 FEET WITH NO
      SIGNIFICANT WEATHER AND/OR OBSTRUCTIONS TO VISIBILITY.
      SKY/WX - SKY CONDITION AND SIGNIFICANT WEATHER.
      TMP - AIR TEMPERATURE.    DP   - DEWPOINT TEMPERATURE.
      RH  - RELATIVE HUMIDITY.  PRES - PRESSURE.
      HX  - HEAT INDEX.         WCI  - WIND CHILL INDEX.
$


USA.gov is the U.S. government's official web portal to all federal, state and local government web resources and services.